CAS500-1

导读

CAS500-1是韩国航空航天研究院主导自主研发的下一代紧凑型先进地球观测卫星,整星质量约500千克。该卫星于2021年3月22日,由俄罗斯联盟-2.1a运载火箭从哈萨克斯坦拜科努尔航天发射场发射升空,入轨后运行于约500公里高度的近地轨道。它搭载改进型高分辨率地球遥测系统,可获取地球表面高精度全色遥感影像,为韩国开展地球观测、国土监测等领域应用提供数据支撑,发射后顺利完成入轨与初始通信测试,卫星状态一切正常。

Basic Information
目录编号:
47932
目录名称:
CAS500-1
国际标识:
2021-022A
轨道中心:
EARTH
卫星名称:
CAS500-1
卫星全名:
--
卫星状态:
在轨 (已飞行1993 天)
发射日期:
2021-03-22 UTC
国别 :
韩国 (KR)
星等 :
--
Orbit Information
数据来源 国际轨道数据
星历时间: 2026-09-05T20:01:07+0800
6小时前
查看轨道信息
半长轴: 6883.509km
偏心率: 0.0005918
轨道倾角: 97.378°
近地点辐角 24.541°
升交点赤经 142.075°
平近点角 335.610°
近地点: 501.298km
远地点: 509.446km
周期: 94.727分钟
每日圈数: 15.201554
Detailed Information
使用方式:
暂无
2D Orbit Map
3D Orbit Map
Orbit Altitude Analysis Chart
Orbit Inclination Analysis Chart
Orbit Comprehensive Analysis Chart
View Comprehensive Chart
Conjunction Data List
Event ID Objects TCA Miss Dist (km) Collision Risk Probability Collision Risk Index (CRI) Action
CDM_260906-180304-793206-669926
CAS500-1 (47932)
2026-09-06T
18:03:21+0000
1.246 km
极远距离
1.280018E-5 中风险 0.57
CDM_260905-205901-111404-793225
SL-8 DEB (11114)
CAS500-1 (47932)
2026-09-05T
20:59:34+0000
2.173 km
极远距离
2.348761E-6 低风险 0.42
CDM_260830-135104-793206-671127
CAS500-1 (47932)
2026-08-30T
13:51:25+0000
2.680 km
极远距离
1.581272E-6 低风险 0.39